Lid_Strength_Index
14 12 10 10 10 10 11 12 12 12 11 9 9 8 8 7 7 7 6 6 5 5 4 4 3 4 4 4 4 4 4 5 5 5 5 5 4 4 2 2 2 1 2 1
14 13 11 11 10 9 10 11 11 11 11 8 8 8 8 8 7 7 6 6 5 4 4 4 3 4 4 5 5 5 5 6 5 4 2 2 1 1 2 2 2 2 2 2
16 13 11 13 10 10 10 10 10 11 10 9 9 8 8 8 7 7 6 5 5 4 4 5 5 5 5 5 5 5 5 3 2 2 2 2 2 2 2 2 2 2 2 3
16 13 16 11 9 8 8 9 9 9 9 8 8 7 7 6 6 6 6 5 5 5 5 4 4 3 3 3 4 3 2 2 2 1 2 2 2 2 2 1 2 3 3 3
15 15 13 10 9 9 9 10 9 9 9 8 7 7 7 5 5 5 5 4 5 4 3 3 3 3 3 2 2 3 2 2 2 1 1 1 2 1 1 2 2 2 2 2
15 15 14 11 9 7 8 11 7 8 9 8 8 11 9 6 5 5 4 4 4 3 3 3 3 2 2 2 3 3 2 2 1 1 2 2 2 2 2 2 2 2 2 2
15 15 12 9 8 7 12 11 7 7 7 8 8 7 6 5 5 4 4 3 3 3 3 3 3 2 3 2 3 2 1 1 1 1 2 2 2 2 3 3 3 2 3 2
15 15 14 8 7 9 8 7 6 6 6 7 6 6 6 5 5 4 4 4 3 3 3 3 3 2 3 3 2 1 2 1 1 1 1 2 2 3 3 3 3 3 3 3
12 13 9 6 7 6 5 6 6 6 6 6 6 6 5 5 5 4 4 3 3 3 3 3 3 2 3 3 3 3 2 3 3 2 2 2 2 3 3 3 3 3 3 3
12 11 9 7 6 6 5 5 5 5 5 5 6 5 5 5 5 4 4 4 3 3 3 3 3 2 2 2 2 2 3 3 4 4 4 3 3 3 3 4 4 4 4 4
12 11 7 7 6 5 5 4 5 4 5 5 5 5 5 5 5 4 4 3 3 3 3 3 3 3 2 2 2 2 3 4 5 5 4 4 5 5 4 6 4 4 5 4
11 10 9 7 5 5 5 5 5 5 5 4 4 5 4 5 4 4 4 3 3 3 3 3 2 2 2 2 2 3 4 5 5 5 4 4 4 5 8 8 10 9 9 6
8 7 6 5 5 4 5 5 4 4 4 5 4 4 4 4 4 4 3 3 3 3 3 3 3 3 2 2 2 3 4 4 4 5 4 4 4 5 5 5 9 10 11 9
6 6 7 6 6 4 4 4 4 4 4 4 4 4 4 4 4 4 4 3 3 3 3 3 3 3 3 3 2 2 2 5 4 4 4 3 4 4 5 5 5 5 7 8
7 5 5 5 5 5 4 4 5 5 5 5 4 4 4 4 4 4 3 3 3 3 3 3 3 3 2 2 2 2 2 2 2 2 2 3 3 3 4 5 5 6 6 7
8 5 5 6 6 5 5 5 5 5 5 4 4 4 4 3 3 3 3 3 3 4 4 3 3 2 2 3 3 3 2 3 2 2 2 2 2 2 4 4 4 5 6 7
8 8 7 7 6 6 5 5 5 5 5 5 4 4 4 4 3 3 3 3 3 3 3 3 3 3 4 4 4 4 3 5 5 6 6 5 3 2 3 2 3 6 7 7
8 6 5 5 6 6 5 5 4 4 5 4 4 4 4 4 4 4 4 4 4 5 4 4 5 5 3 4 5 5 7 7 7 7 8 7 6 4 3 2 4 6 6 5
6 6 5 5 5 5 5 5 5 4 4 4 4 5 4 3 3 4 5 4 4 5 6 7 6 7 6 4 6 8 8 8 8 8 8 8 7 7 5 5 5 5 5 5
6 5 5 4 4 4 5 5 5 5 4 4 5 5 5 5 4 5 5 4 4 3 6 6 8 9 8 5 6 8 8 7 8 8 8 8 7 7 7 8 6 5 5 4
7 7 6 4 4 4 4 4 5 5 5 5 6 5 5 4 4 5 5 5 6 6 7 6 8 9 8 6 7 8 8 8 8 8 7 7 7 7 7 6 5 5 4 4
5 5 5 4 4 5 4 4 4 5 5 5 5 5 6 5 5 4 3 3 6 7 8 9 9 7 7 6 9 9 8 8 8 8 7 7 7 6 5 5 4 4 4 4
5 5 5 4 4 4 3 4 4 4 5 5 5 5 6 5 5 5 5 6 7 8 8 8 7 5 5 9 9 8 7 7 8 7 7 6 6 6 5 4 3 3 4 4
4 5 4 4 3 4 5 4 4 4 4 4 4 5 5 6 7 6 7 9 9 8 8 8 6 6 8 8 8 7 7 7 7 7 6 8 6 5 4 3 3 4 4 5
4 5 4 4 5 5 5 5 4 5 5 5 5 5 4 4 5 7 8 7 9 8 8 7 7 7 8 7 7 7 7 7 6 5 5 6 6 4 3 3 3 3 4 4
4 4 4 4 4 4 3 3 4 4 5 5 5 6 7 8 8 7 8 8 8 9 8 7 7 7 7 7 7 6 7 6 5 6 6 5 4 3 3 3 3 3 3 4
4 6 4 4 3 3 3 4 4 5 5 5 8 9 9 10 9 9 9 9 9 9 8 8 7 7 7 7 7 7 6 5 7 5 5 4 3 3 3 3 3 3 3 3